Location: Del Amo
(33.8464°N, 118.2104°W)
Time: 19:24:52
(UTC+00:00)

S-56A Canister/Altair - Pass Details

Date: 22 September 2024
Orbit: 636 x 2487 km, 38.9° (Epoch: 14 October)

Event Time Altitude Azimuth Distance (km) Brightness Sun altitude
Rises 21:18:35 0° 195° (SSW) 3,202 11.3 49.6°
Reaches altitude 10° 21:22:51 10° 161° (SSE) 2,083 10.2 49.0°
Maximum altitude 21:24:20 11° 142° (SE) 1,950 9.9 48.8°
Drops below altitude 10° 21:25:47 10° 123° (ESE) 2,018 9.8 48.6°
Sets 21:29:41 0° 88° (E) 2,943 10.3 48.1°
